Flag for Oman Weather past 2 weeks in Salalah, Oman

Now
86 °F

Scattered clouds.


Feels Like: 95 °F
Forecast: 78 / 85 °F
Wind: 12 mph from South

Location: Salalah Airport

Current Time: Sep 22, 2014 at 12:59:58 PM

Latest Report: Sep 22, 2014 at 11:50 AM


Visibility: N/A

Pressure: 29.77 "Hg

Humidity: 70%

Dew point: 75 °F

Location of SalalahLocation

Historic Weather in Salalah — Graph

°F

Salalah temperature yesterday

Maximum temperature yesterday: 86 °F (at 10:50 AM)
Minimum temperature yesterday: 79 °F (at 3:50 AM)
Average temperature yesterday: 82 °F

Past Weeks' High & Low Weather Summary

 TemperatureHumidityPressure
High88 °F (Sep 15, 12:50 PM)94% (Sep 8, 7:50 AM)29.86 "Hg (Sep 8, 7:50 AM)
Low77 °F (Sep 9, 4:50 AM)59% (Sep 21, 10:50 AM)29.62 "Hg (Sep 17, 1:50 AM)
Average81 °F81%29.74 "Hg
* Reported Sep 7 11:50 AM — Sep 22 11:50 AM, Salalah, Weather by CustomWeather, © 2014

Note: Actual official high and low records may vary slightly from our data, if they occured in-between our weather recording intervals... More about our weather records

Advertising

Salalah weather history for previous 24 hours

 ConditionsComfort  
Time TempWeatherWind HumidityBarometerVisibility
11:50 AM
Sep 22
86 °FScattered clouds.12 mph70%29.77 "HgN/A
10:50 AM86 °FScattered clouds.8 mph70%29.80 "HgN/A
9:50 AM86 °FPartly sunny.7 mph66%29.80 "HgN/A
8:50 AM84 °FWarm.2 mph74%29.80 "HgN/A
7:50 AM81 °FWarm.2 mph84%29.77 "HgN/A
6:50 AM81 °FBroken clouds.2 mph79%29.74 "HgN/A
5:50 AM81 °FPassing clouds.7 mph79%29.71 "HgN/A
4:50 AM81 °FPassing clouds.5 mph79%29.71 "HgN/A
3:50 AM82 °FWarm.3 mph74%29.68 "HgN/A
2:50 AM81 °FPassing clouds.No wind79%29.68 "HgN/A
1:50 AM81 °FPassing clouds.5 mph79%29.71 "HgN/A
12:50 AM81 °FWarm.6 mph79%29.71 "HgN/A
11:50 PM
Sep 21
81 °FPassing clouds.5 mph84%29.71 "HgN/A
10:50 PM81 °FWarm.5 mph84%29.74 "HgN/A
9:50 PM81 °FWarm.3 mph84%29.74 "HgN/A
8:50 PM81 °FPassing clouds.7 mph84%29.71 "HgN/A
7:50 PM81 °FPartly cloudy.8 mph84%29.71 "HgN/A
6:50 PM82 °FPassing clouds.8 mph79%29.68 "HgN/A
5:50 PM82 °FWarm.9 mph79%29.68 "HgN/A
4:50 PM84 °FPassing clouds.9 mph74%29.68 "HgN/A
3:50 PM84 °FSunny.10 mph70%29.65 "Hg10 mi
2:50 PM86 °FPassing clouds.12 mph66%29.65 "HgN/A
1:50 PM86 °FScattered clouds.12 mph62%29.68 "HgN/A
12:50 PM86 °FScattered clouds.13 mph62%29.71 "HgN/A
Weather by CustomWeather, © 2014

See weather overviewHow to use our weather pages